TimeIST,TemperatureF,Dew PointF,Humidity,Sea Level PressureIn,VisibilityMPH,Wind Direction,Wind SpeedMPH,Gust SpeedMPH,PrecipitationIn,Events,Conditions,WindDirDegrees,DateUTC
12:20 AM,64.4,55.4,73,29.89,6.2,Variable,2.3,-,N/A,,Scattered Clouds,0,2013-03-26 22:20:00
12:50 AM,64.4,55.4,73,29.89,6.2,SSW,4.6,-,N/A,,Scattered Clouds,200,2013-03-26 22:50:00
1:20 AM,62.6,55.4,77,29.89,6.2,South,4.6,-,N/A,,Scattered Clouds,190,2013-03-26 23:20:00
1:50 AM,62.6,55.4,77,29.89,6.2,SW,4.6,-,N/A,,Scattered Clouds,220,2013-03-26 23:50:00
2:00 AM,63,56,70,29.90,6,SW,4.6,,,,Partly Cloudy,220,2013-03-27 00:00:00
2:20 AM,62.6,55.4,77,29.89,6.2,WSW,6.9,-,N/A,,Scattered Clouds,250,2013-03-27 00:20:00
2:50 AM,62.6,55.4,77,29.89,6.2,WSW,5.8,-,N/A,,Scattered Clouds,250,2013-03-27 00:50:00
3:20 AM,60.8,53.6,77,29.89,6.2,SW,5.8,-,N/A,,Partly Cloudy,230,2013-03-27 01:20:00
3:50 AM,60.8,53.6,77,29.89,6.2,SW,5.8,-,N/A,,Partly Cloudy,230,2013-03-27 01:50:00
4:20 AM,60.8,53.6,77,29.89,6.2,Variable,2.3,-,N/A,,Partly Cloudy,0,2013-03-27 02:20:00
4:50 AM,60.8,53.6,77,29.89,6.2,South,5.8,-,N/A,,Partly Cloudy,180,2013-03-27 02:50:00
5:20 AM,59.0,53.6,82,29.89,6.2,South,6.9,-,N/A,,Mostly Cloudy,180,2013-03-27 03:20:00
5:50 AM,59.0,53.6,82,29.89,5.0,South,6.9,-,N/A,,Mostly Cloudy,180,2013-03-27 03:50:00
6:20 AM,59.0,53.6,82,29.92,5.0,South,5.8,-,N/A,,Scattered Clouds,180,2013-03-27 04:20:00
6:50 AM,60.8,53.6,77,29.95,5.6,South,5.8,-,N/A,,Scattered Clouds,180,2013-03-27 04:50:00
7:20 AM,62.6,53.6,72,29.95,5.6,South,6.9,-,N/A,,Mostly Cloudy,180,2013-03-27 05:20:00
7:50 AM,64.4,53.6,68,29.95,5.6,South,6.9,-,N/A,,Mostly Cloudy,190,2013-03-27 05:50:00
8:00 AM,64,54,61,29.97,6,South,6.9,,,,Haze,190,2013-03-27 06:00:00
8:20 AM,66.2,53.6,64,29.95,5.6,SW,6.9,-,N/A,,Mostly Cloudy,230,2013-03-27 06:20:00
8:50 AM,66.2,50.0,56,29.98,6.2,WSW,9.2,-,N/A,,Mostly Cloudy,240,2013-03-27 06:50:00
9:20 AM,66.2,51.8,60,29.98,6.2,SW,8.1,-,N/A,,Mostly Cloudy,220,2013-03-27 07:20:00
9:50 AM,68.0,51.8,56,29.98,6.2,West,12.7,-,N/A,,Mostly Cloudy,260,2013-03-27 07:50:00
10:20 AM,66.2,53.6,64,29.98,6.2,West,15.0,-,N/A,,Mostly Cloudy,260,2013-03-27 08:20:00
10:50 AM,68.0,51.8,56,29.98,6.2,West,13.8,-,N/A,,Mostly Cloudy,260,2013-03-27 08:50:00
11:20 AM,68.0,51.8,56,29.98,6.2,West,13.8,-,N/A,,Mostly Cloudy,260,2013-03-27 09:20:00
11:50 AM,69.8,51.8,53,29.98,6.2,West,16.1,-,N/A,,Mostly Cloudy,270,2013-03-27 09:50:00
12:20 PM,68.0,51.8,56,29.98,6.2,WSW,10.4,-,N/A,,Mostly Cloudy,240,2013-03-27 10:20:00
12:50 PM,68.0,51.8,56,29.95,6.2,West,10.4,-,N/A,,Scattered Clouds,260,2013-03-27 10:50:00
1:20 PM,69.8,51.8,53,29.95,6.2,WSW,10.4,-,N/A,,Scattered Clouds,250,2013-03-27 11:20:00
1:50 PM,68.0,51.8,56,29.95,6.2,West,11.5,-,N/A,,Scattered Clouds,260,2013-03-27 11:50:00
2:00 PM,69,51,43,29.97,6,West,11.5,,,,Partly Cloudy,260,2013-03-27 12:00:00
2:50 PM,69.8,51.8,53,29.95,6.2,WNW,11.5,-,N/A,,Partly Cloudy,290,2013-03-27 12:50:00
3:20 PM,68.0,51.8,56,29.95,6.2,West,11.5,-,N/A,,Partly Cloudy,280,2013-03-27 13:20:00
3:50 PM,68.0,53.6,60,29.98,6.2,West,11.5,-,N/A,,Partly Cloudy,270,2013-03-27 13:50:00
4:20 PM,68.0,53.6,60,29.98,6.2,West,12.7,-,N/A,,Partly Cloudy,260,2013-03-27 14:20:00
4:50 PM,66.2,53.6,64,29.98,6.2,West,12.7,-,N/A,,Partly Cloudy,280,2013-03-27 14:50:00
5:20 PM,66.2,53.6,64,29.98,6.2,WNW,11.5,-,N/A,,Partly Cloudy,300,2013-03-27 15:20:00
5:50 PM,64.4,53.6,68,30.01,6.2,WNW,8.1,-,N/A,,Partly Cloudy,290,2013-03-27 15:50:00
6:20 PM,64.4,53.6,68,30.01,6.2,WNW,6.9,-,N/A,,Partly Cloudy,300,2013-03-27 16:20:00
6:50 PM,62.6,53.6,72,30.01,6.2,WNW,8.1,-,N/A,,Partly Cloudy,290,2013-03-27 16:50:00
7:20 PM,62.6,53.6,72,30.04,6.2,West,4.6,-,N/A,,Partly Cloudy,270,2013-03-27 17:20:00
7:50 PM,62.6,53.6,72,30.04,6.2,Variable,1.2,-,N/A,,Partly Cloudy,0,2013-03-27 17:50:00
8:00 PM,63,54,64,30.04,6,,1.2,,,,Scattered Clouds,,2013-03-27 18:00:00
8:20 PM,62.6,53.6,72,30.04,6.2,Variable,1.2,-,N/A,,Scattered Clouds,0,2013-03-27 18:20:00
8:50 PM,60.8,53.6,77,30.04,6.2,Variable,3.5,-,N/A,,Partly Cloudy,0,2013-03-27 18:50:00
9:20 PM,60.8,53.6,77,30.04,6.2,Variable,3.5,-,N/A,,Partly Cloudy,0,2013-03-27 19:20:00
9:50 PM,60.8,53.6,77,30.04,6.2,Variable,2.3,-,N/A,,Partly Cloudy,0,2013-03-27 19:50:00
10:20 PM,60.8,53.6,77,30.04,-9999.0,Variable,2.3,-,N/A,,Clear,0,2013-03-27 20:20:00
10:50 PM,59.0,53.6,82,30.04,-9999.0,WSW,4.6,-,N/A,,Clear,250,2013-03-27 20:50:00
11:20 PM,59.0,53.6,82,30.04,-9999.0,SE,4.6,-,N/A,,Clear,130,2013-03-27 21:20:00
11:50 PM,59.0,53.6,82,30.04,6.2,SE,6.9,-,N/A,,Partly Cloudy,140,2013-03-27 21:50:00